Location: Home
(42.5358°N, 72.7383°W)
Time: 06:32:18
(UTC-05:00)

Courier 1B Rocket - Pass Details

Date: 05 December 2021
Orbit: 920 x 1202 km, 28.2° (Epoch: 25 January)

Event Time Altitude Azimuth Distance (km) Brightness Sun altitude
Rises 00:26:42 0° 247° (WSW) 3,592 - -67.8°
Reaches altitude 10° 00:29:59 10° 231° (SW) 2,622 - -67.5°
Maximum altitude 00:34:29 21° 185° (S) 1,940 - -67.0°
Drops below altitude 10° 00:38:59 10° 138° (SE) 2,605 - -66.6°
Sets 00:42:14 0° 123° (ESE) 3,562 - -66.2°
